{"data":{"norad_id":53193,"intl_designator":"2022-084E","name":"STARLINK-4351","alt_names":[],"object_type":"PAYLOAD","status":"ACTIVE","operator":null,"country":"US","launch_date":"2022-07-22","launch_site_code":"AFWTR","launch_vehicle":null,"mission":null,"orbit_class":"UNKNOWN","rcs_meters":null,"size_class":null,"mass_kg":null,"dimensions":null,"purposes":["comms"],"wikipedia_slug":null,"has_3d_model":false,"image_url":null,"decayed_at":null,"tle_current":{"epoch":"2026-05-25T03:02:57.532128Z","epoch_age_seconds":78272,"freshness":"FRESH","line1":"1 53193U 22084E   26145.12705477 -.00007759  00000+0 -53399-3 0  9999","line2":"2 53193  97.4498 205.0598 0000614 224.5226 135.5952 15.05671161211824","mean_motion":15.05671161,"eccentricity":6.14e-5,"inclination_deg":97.4498,"raan_deg":205.0598,"arg_perigee_deg":224.5226,"mean_anomaly_deg":135.5952,"bstar":-0.00053399,"rev_number":21182,"period_min":95.638412775577,"perigee_km":549.02089191848,"apogee_km":549.87159914103,"semimajor_km":6927.5832455298,"source":"CELESTRAK","updated_at":"2026-05-25T13:38:17.348383Z"}}}